Regional Weather Roundup
Issued by NWS

Home | Current Version | Previous Version | Text Only | Print | Product List | Glossary On
Versions: 1 2 3 4 5 6 7 8 9 10 11 12 13 14 15 16 17 18 19 20 21 22 23 24 25 26 27 28 29 30 31 32 33 34 35 36 37 38 39 40 41 42 43 44 45 46 47 48 49 50
000
ASUS44 KLUB 301510
RWRTX
WEST TEXAS WEATHER ROUNDUP
NATIONAL WEATHER SERVICE LUBBOCK TX
1000 AM CDT SAT JUL 30 2016

NOTE: "FAIR" INDICATES FEW OR NO CLOUDS BELOW 12,000 FEET WITH NO
SIGNIFICANT WEATHER AND/OR OBSTRUCTIONS TO VISIBILITY.

TXZ004-006>008-010-012-014-016-OKZ002-301600-
TEXAS PANHANDLE/OKLAHOMA PANHANDLE

CITY           SKY/WX    TMP DP  RH WIND       PRES   REMARKS
AMARILLO       SUNNY     76  63  64 S14       30.12S
BORGER         SUNNY     81  63  54 SW10G16   30.08S
CANADIAN       SUNNY     82  69  64 W9        30.03R
DALHART        SUNNY     75  58  55 S12       30.13F
DUMAS          SUNNY     74  58  57 SW13      30.11F
GUYMON         SUNNY     78  59  51 SW14      30.05S
HEREFORD       SUNNY     77  62  59 S10G18    30.14F
PAMPA          SUNNY     83  61  47 S15       30.08F
PERRYTON       SUNNY     81  62  52 SW15      30.06S
$$

TXZ026-029-035-045-048-301600-
SOUTHERN PANHANDLE/SOUTH PLAINS/ROLLING PLAINS

CITY           SKY/WX    TMP DP  RH WIND       PRES   REMARKS
CHILDRESS      CLOUDY    76  72  87 W6        30.02R
SEMINOLE       SUNNY     80  63  56 S8        30.13R
LUBBOCK        CLOUDY    74  62  66 CALM      30.12S
PLAINVIEW      CLOUDY    72  64  75 SW7       30.11R
SNYDER           N/A     81  64  57 SW8       30.09S
$$

TXZ052-054-060>062-072-078-127-140-154-169-301600-
PERMIAN BASIN/CONCHO VALLEY/BIG COUNTRY/EDWARDS PLATEAU

CITY           SKY/WX    TMP DP  RH WIND       PRES   REMARKS
ABILENE        SUNNY     83  68  60 S8        30.06S
BIG SPRING     MOSUNNY   83  64  52 S6        30.11S
BROWNWOOD      MOSUNNY   84  66  54 S14       30.06S
JUNCTION       SUNNY     81  68  64 S9        30.08S
MIDLAND        SUNNY     83  61  47 S13       30.09R
ODESSA         SUNNY     81  62  52 S12       30.10R
SAN ANGELO     SUNNY     82  67  60 S10       30.07R
SONORA         SUNNY     81  66  61 S12       30.12S
SWEETWATER     SUNNY     82  66  57 S12       30.10S
WINK           SUNNY     81  64  56 SE12      30.06R
$$

TXZ055-058-074-075-080-082-301600-
FAR WEST/SOUTHWEST MOUNTAINS/TRANS PECOS

CITY           SKY/WX    TMP DP  RH WIND       PRES   REMARKS
ALPINE         SUNNY     77  59  54 S8        30.21S
DRYDEN           N/A     79  66  64 VRB5      30.05R
EL PASO        PTSUNNY   79  61  53 E6        30.10R
FORT STOCKTON  SUNNY     80  64  58 SE12      30.07S
GUADALUPE PASS SUNNY     75  57  53 VRB6      30.23R
MARFA          SUNNY     71  62  73 S9        30.20S
PECOS          SUNNY     83  62  48 SE7       30.05S
PRESIDIO       FAIR      78  62  56 NE6       30.07S
$$

TXZ014-016-019-021>030-083-301600
TEXAS TECH WEST TEXAS MESONET/TEXAS PANHANDLE/NORTHERN SOUTH PLAINS

CITY           SKY/WX    TMP DP  RH WIND       PRES   REMARKS
ABERNATHY 5ENE   N/A     71  64  78 S6        30.14S
AMARILLO 9NNE    N/A     78  62  57 S10       30.11S
AMARILLO 7SSE    N/A     77  63  62 S12       30.14R
AMHERST 1NE      N/A     71  60  68 S5        30.15S
BOOTLEG 11WNW    N/A     75  62  65 S18       30.19F
CANADIAN 6E      N/A     84  68  58 W6        30.02S
CAPROCK CYN SP   N/A     75  69  79 W2        30.08R
CHILDRESS 2NNE   N/A     76  70  81 SW3       30.03F
CLARENDON 2WSW   N/A     79  61  54 SW9       30.08S
CLAUDE 12SW      N/A     74  65  72 SW9       30.12R
DIMMITT 2NE      N/A     73  62  67 S13       30.15S
FLOYDADA 2NNE    N/A     75  64  68 S13       30.10F
FRIONA 2NE       N/A     75  62  64 S12       30.17F
GOODLETT 3W      N/A     82  70  66 S12       30.00R
HART 3N          N/A     71  63  75 S9        30.15S
HEREFORD 2NW     N/A     76  58  51 S10       30.16F
MCLEAN 1E        N/A     81  59  47 SW10      30.05F
MEMPHIS 1NE      N/A     76  67  73 W7        30.05R
MULESHOE 2SSW    N/A     76  62  62 S12       30.16S
OLTON 6S         N/A     71  61  68 S7        30.14S
PALO DURO SP     N/A     75  64  69 S8        30.14R
PAMPA 2E         N/A     81  61  51 S12       30.09S
PLAINVIEW 1S     N/A     73  64  74 SW5       30.13R
SILVERTON 7ESE   N/A     78  65  64 SW3       30.09R
TULIA 2ENE       N/A     73  64  73 S8        30.13S
TURKEY 2WSW      N/A     76  70  81 S9        30.06F
UMBARGER 3NNE    N/A     78  62  59 S15       30.14F
$$

TXZ033>036-039>041-045>048-301600
TEXAS TECH WEST TEXAS MESONET/SOUTH PLAINS

CITY           SKY/WX    TMP DP  RH WIND       PRES   REMARKS
AIKEN 3WSW       N/A     73  67  81 SW7       30.13R
ANDREWS 2NE      N/A     83  60  45 S10       30.13S
ANTON 6SSW       N/A     74  62  65 E5        30.14S
BROWNFIELD 2S    N/A     76  62  61 SE3       30.14S
DENVR CTY 7WNW   N/A     79  62  54 SE7       30.15R
GAIL 2ESE        N/A     83  64  53 SW7       30.09S
LAMESA 2SE       N/A     80  64  58 S7        30.12S
LEVELLAND 4S     N/A     73  60  63 S7        30.15S
LUBBOCK 3WNW     N/A     76  59  56 SE3       30.14S
MORTON 1ENE      N/A     74  61  64 SE6       30.16R
ODONNELL 1N      N/A     80  61  51 S7G14     30.12S
PLAINS 3N        N/A     75  60  59 E6        30.16S
RALLS 1SE        N/A     76  64  66 W5        30.13S
REESE CENTER     N/A     73  60  61 E3        30.14S
SEAGRAVES 1SW    N/A     78  64  62 SE5       30.14S
SEMINOLE 2NNE    N/A     81  61  51 S12       30.13R
SLATON 2NE       N/A     79  62  56 SW8       30.12F
SNYDER 3E        N/A     82  65  55 SW9       30.09S
SUNDOWN 8SW      N/A     74  60  61 SE5       30.16R
TAHOKA 3NNE      N/A     80  63  54 W8        30.13S
WOLFFORTH 6SSW   N/A     76  61  59 S3        30.14S
$$

TXZ031-032-036>038-042>044-301600-
TEXAS TECH WEST TEXAS MESONET/ROLLING PLAINS

CITY           SKY/WX    TMP DP  RH WIND       PRES   REMARKS
ASPERMONT 3NE    N/A     88  63  43 SW12      30.04S
FLUVANNA 3WNW    N/A     81  62  53 S12       30.10S
GRAHAM 5SSW      N/A     81  63  52 SW9       30.11S
GUTHRIE 10WSW    N/A     87  63  44 SW14G20   30.04R
HASKELL 1NW      N/A     86  62  43 SW15G21   30.03F
JAYTON 1SSE      N/A     86  64  47 SW12      30.05S
KNOX CITY 3NW    N/A     90  62  39 SW13G21   30.02S
LK A HENRY 1NW   N/A     86  63  44 SW7       30.08S
NORTHFIELD 1S    N/A     81  70  68 S15       30.03F
PADUCAH 10SW     N/A     78  71  80 S5        30.05R
POST 1NE         N/A     82  62  51 S3        30.09S
RRING SPRGS 3N   N/A     74  69  82 S7        30.08F
SEYMOUR 3NW      N/A     88  63  42 SW12      30.01S
SPUR 1W          N/A     84  63  49 SW9       30.07S
WEINERT 2NNE     N/A     88  65  46 SW14      30.02F
WHITE RVR 6NE    N/A     79  63  57 S5        30.10S
$$

TXZ052-054-060>062-072-078-127-140-154-169-301600-
TEXAS TECH WEST TEXAS MESONET/PERMIAN BASIN/
CONCHO VALLEY/BIG COUNTRY/EDWARDS PLATEAU

CITY           SKY/WX    TMP DP  RH WIND       PRES   REMARKS
COYANOSA 2N      N/A     82  66  58 E8        30.07R
JUNCTION 1SSW    N/A     83  69  61 S6        30.09S
MERTZON 3NNE     N/A     83  67  56 S9        30.10R
SAN ANGELO 7NW   N/A     83  65  55 S8        30.08S
STRLNG CT 4WSW   N/A     83  65  54 SE16      30.09S
ST LAWRNCE 5SW   N/A     80  64  59 SW13      30.10R
SWEETWATR 11SW   N/A     83  66  56 SW12      30.10F
WALL 1E          N/A     83  66  55 SW13      30.09S
$$

TXZ055-058-074-075-080-082-301600-
TEXAS TECH WEST TEXAS MESONET/FAR WEST/SOUTHWEST MOUNTAINS/TRANS PECOS

CITY           SKY/WX    TMP DP  RH WIND       PRES   REMARKS
PRSMN GAP BBNP   N/A     78  64  60 NE9       30.10R
GUADLPE MTN NP   N/A     76  52  44 E7        30.24R
$$



USA.gov is the U.S. government's official web portal to all federal, state and local government web resources and services.